Regional Weather Roundup
Issued by NWS

Home | Current Version | Previous Version | Text Only | Print | Product List | Glossary On
Versions: 1 2 3 4 5 6 7 8 9 10 11 12 13 14 15 16 17 18 19 20 21 22 23 24 25 26 27 28 29 30 31 32 33 34 35 36 37 38 39 40 41 42 43 44 45 46 47
000
ASUS45 KPSR 291210
RWRAZ

ARIZONA REGIONAL HOURLY WEATHER ROUNDUP
NATIONAL WEATHER SERVICE TUCSON AZ
500 AM MST THU JUN 29 2017

NOTE: FAIR INDICATES FEW OR NO CLOUDS BELOW 12,000 FEET WITH NO
SIGNIFICANT WEATHER AND/OR OBSTRUCTIONS TO VISIBILITY.

AZZ001>003-036-291300-
NORTHWEST ARIZONA

CITY           SKY/WX    TMP DP  RH WIND       PRES   REMARKS
BULLHEAD CITY  CLEAR     84  25  11 SE6       29.72R
KINGMAN        NOT AVBL
$$

AZZ004>008-015-016-018-291300-
NORTH CENTRAL ARIZONA

CITY           SKY/WX    TMP DP  RH WIND       PRES   REMARKS
GRAND CANYON   PTCLDY    40  15  36 CALM      30.18R
6HR MIN TEMP:  39; 6HR MAX TEMP:  54;

PRESCOTT       CLEAR     58  33  39 S8        30.06R
6HR MIN TEMP:  57; 6HR MAX TEMP:  74;

FLAGSTAFF      CLEAR     43  25  49 CALM      30.21R
6HR MIN TEMP:  43; 6HR MAX TEMP:  64;

PAYSON         SUNNY     63  32  31 CALM      30.11R
PAGE           CLEAR     71  18  13 CALM      29.94
6HR MIN TEMP:  70; 6HR MAX TEMP:  86;

$$

AZZ009>014-017-291300-
NORTHEAST ARIZONA

CITY           SKY/WX    TMP DP  RH WIND       PRES   REMARKS
WINSLOW        CLEAR     58  29  33 SE6       30.05R
6HR MIN TEMP:  57; 6HR MAX TEMP:  73;

SAINT JOHNS    CLEAR     58  30  34 SE6       30.12R
6HR MIN TEMP:  57; 6HR MAX TEMP:  70;

WINDOW ROCK    CLEAR     58  29  33 CALM      30.19R
6HR MIN TEMP:  56; 6HR MAX TEMP:  68;

SHOW LOW       CLEAR     61  30  31 S10       30.18S
$$

AZZ023-291300-
GREATER PHOENIX AREA

CITY           SKY/WX    TMP DP  RH WIND       PRES   REMARKS
PHOENIX        CLEAR     84  44  24 E9        29.79R
6HR MIN TEMP:  84; 6HR MAX TEMP:  98;

BUCKEYE        SUNNY     75  45  33 N7        29.79S
LUKE AFB       CLEAR     83  49  30 SE3       29.79R
6HR MIN TEMP:  80; 6HR MAX TEMP:  92;

DEER VALLEY    CLEAR     79  45  29 E5        29.81R
6HR MIN TEMP:  79; 6HR MAX TEMP:  94;

SCOTTSDALE     CLEAR     82  44  26 CALM      29.84R
6HR MIN TEMP:  82; 6HR MAX TEMP:  95;

MESA-GATEWAY   CLEAR     79  45  29 E8        29.83S
$$

AZZ027-028-291300-
SOUTHWEST MARICOPA COUNTY AND PINAL COUNTY

CITY           SKY/WX    TMP DP  RH WIND       PRES   REMARKS
CASA GRANDE    CLEAR     78  48  34 E6        29.84R
6HR MIN TEMP:  74; 6HR MAX TEMP:  89;

$$

AZZ503-504-507>509-291300-
SOUTHEAST ARIZONA

CITY           SKY/WX    TMP DP  RH WIND       PRES   REMARKS
TUCSON         CLEAR     80  41  24 E6        29.94R
6HR MIN TEMP:  79; 6HR MAX TEMP:  92;

DAVIS-MONTHAN  CLEAR     76  40  26 E7        29.93R
6HR MIN TEMP:  76; 6HR MAX TEMP:  88;

NOGALES        CLEAR     69  55  60 S3        30.03S
6HR MIN TEMP:  69; 6HR MAX TEMP:  83;

SIERRA VISTA   CLEAR     69  49  47 NE5       30.09R
6HR MIN TEMP:  69; 6HR MAX TEMP:  81;

DOUGLAS        CLEAR     70  52  52 S3        30.06R
6HR MIN TEMP:  69; 6HR MAX TEMP:  80;

SAFFORD        CLEAR     75  36  24 CALM      29.93R
6HR MIN TEMP:  73; 6HR MAX TEMP:  84; 6HR PCP: TRACE;

$$

AZZ020-021-025-026-031-291300-
SOUTHWEST ARIZONA

CITY           SKY/WX    TMP DP  RH WIND       PRES   REMARKS
YUMA           CLEAR     80  64  58 SE10      29.72R
6HR MIN TEMP:  79; 6HR MAX TEMP:  87;

$$

CAZ031-033-041-043-047-048-061-291300-
SOUTHERN CALIFORNIA

CITY           SKY/WX    TMP DP  RH WIND       PRES   REMARKS
DOWNTOWN L.A.  CLOUDY    65  57  75 CALM      29.90R
6HR MIN TEMP:  65; 6HR MAX TEMP:  67;

L.A. AIRPORT   MOCLDY    64  57  78 SE7       29.90S
6HR MIN TEMP:  63; 6HR MAX TEMP:  66;

SAN DIEGO      CLOUDY    63  56  78 SW6       29.93R
6HR MIN TEMP:  62; 6HR MAX TEMP:  64;

BURBANK        CLOUDY    63  57  81 VRB5      29.90R HAZE
6HR MIN TEMP:  63; 6HR MAX TEMP:  67;

ONTARIO        PTCLDY    59  56  89 W7        29.91R
6HR MIN TEMP:  59; 6HR MAX TEMP:  64;

RIVERSIDE      CLEAR     59  57  93 W3        29.91R
6HR MIN TEMP:  59; 6HR MAX TEMP:  64;

PALM SPRINGS   CLEAR     77  47  34 CALM      29.73R
6HR MIN TEMP:  77; 6HR MAX TEMP:  90;

EL CENTRO NAS  CLEAR     75  51  43 S6        29.72R
6HR MIN TEMP:  75; 6HR MAX TEMP:  88;

IMPERIAL       CLEAR     70  53  54 SW5       29.71R
6HR MIN TEMP:  70; 6HR MAX TEMP:  82;

BLYTHE         CLEAR     73  29  19 NW5       29.73R
6HR MIN TEMP:  73; 6HR MAX TEMP:  91;

NEEDLES        CLEAR     87  27  11 SW9       29.73S
6HR MIN TEMP:  86; 6HR MAX TEMP:  99;

$$

NVZ020-UTZ003-291300-
SOUTHERN NEVADA-UTAH

CITY           SKY/WX    TMP DP  RH WIND       PRES   REMARKS
LAS VEGAS      CLEAR     82  26  13 S5        29.79R
6HR MIN TEMP:  82; 6HR MAX TEMP:  95;

SALT LAKE CITY PTCLDY    65  43  44 SE5       29.98R
6HR MIN TEMP:  64; 6HR MAX TEMP:  75;

$$

NMZ009-TXZ055-291300-
NEW MEXICO-WEST TEXAS

CITY           SKY/WX    TMP DP  RH WIND       PRES   REMARKS
ALBUQUERQUE    CLEAR     73  23  15 SW12      30.07R
6HR MIN TEMP:  69; 6HR MAX TEMP:  81;

EL PASO        NOT AVBL
$$


........................KEY........................
SKY/WX - SKY CONDITION/WEATHER
TMP    - TEMPERATURE IN FAHRENHEIT
DP     - DEWPOINT IN FAHRENHEIT
RH     - RELATIVE HUMIDITY IN PERCENT
WIND   - DIRECTION AND SPEED IN MILES PER HOUR (MPH)
VRB    - VARIABLE WIND DIRECTION
PRES   - MEAN SEA LEVEL PRESSURE IN INCHES OF MERCURY
         F - FALLING PRESSURE   R - RISING PRESSURE
         S - STEADY PRESSURE
VSB    - VISIBILITY IN MILES
HX     - HEAT INDEX IN FAHRENHEIT
WCI    - WIND CHILL INDEX IN FAHRENHEIT
TC     - TEMPERATURE IN CELSIUS WHICH IS ALSO KNOWN AS
         TEMPERATURE IN CENTIGRADE
AFB    - AIR FORCE BASE
         LUKE AFB IS LUKE AIR FORCE BASE
         DAVIS-MONTHAN IS DAVIS-MONTHAN AIR FORCE BASE
NAS    - NAVAL AIR STATION
         EL CENTRO NAS IS EL CENTRO NAVAL AIR STATION
N/A    - NOT AVAILABLE





USA.gov is the U.S. government's official web portal to all federal, state and local government web resources and services.